EHI
5 4 2 1 0 0 0 0 0 0 0 0 0 0 0 0 0 0 0 0 0 1 2 2 3 3 2 1 1 2 1 0 0 0 0 1 1 0 0 0 0 0 0 0 0 0 0 0 0
4 3 2 1 0 0 0 0 0 0 0 0 0 0 0 0 0 0 0 0 0 0 1 1 2 2 2 1 1 1 1 0 0 0 0 1 1 0 0 0 0 0 0 0 0 0 0 0 0
3 3 1 0 0 0 0 0 0 0 0 0 0 0 0 0 0 0 0 0 0 0 0 0 1 1 1 0 0 0 0 0 0 0 0 1 1 0 0 0 0 0 0 0 0 0 0 0 0
3 2 0 0 0 0 0 0 0 0 0 0 0 0 0 0 0 0 0 0 0 0 0 0 0 0 0 0 0 0 0 0 0 0 0 0 0 0 0 0 0 0 0 0 0 0 0 0 0
1 0 0 0 0 0 0 0 0 0 0 0 0 0 0 0 0 0 0 0 0 0 0 0 0 0 0 0 0 0 0 0 0 0 0 0 0 0 0 0 0 0 0 0 0 0 0 0 0
0 0 0 0 0 0 0 0 0 0 0 0 0 0 0 0 0 0 0 0 0 0 0 0 0 0 0 1 1 1 0 0 0 0 0 0 0 1 0 0 0 0 0 0 0 0 0 0 0
0 0 0 0 0 0 0 0 0 0 0 0 0 0 0 0 0 0 0 0 0 0 0 0 0 0 0 1 2 2 1 0 0 0 0 0 0 0 0 0 0 0 0 0 0 0 0 0 0
0 0 0 0 0 0 0 0 0 0 0 0 0 0 0 0 1 1 0 0 0 0 0 0 0 0 0 1 1 1 1 0 0 0 0 0 0 0 0 0 0 0 0 0 0 0 0 0 0
0 0 0 0 0 0 0 0 0 0 0 0 0 0 0 1 2 2 1 0 0 0 0 0 0 0 0 0 0 0 0 0 0 0 0 0 0 0 0 0 0 0 0 0 0 0 0 0 0
0 0 0 0 0 0 0 0 0 0 0 0 0 0 0 2 3 2 1 0 0 0 0 0 0 0 0 0 0 0 0 0 0 0 1 1 0 0 0 0 0 0 0 0 0 0 0 0 0
0 0 0 0 0 0 0 0 0 0 0 0 0 0 1 1 2 1 0 0 0 0 0 0 0 0 0 0 0 0 0 0 0 0 1 1 0 0 0 0 0 0 0 0 0 0 0 0 0
0 0 0 0 0 0 0 0 0 0 0 0 0 1 1 1 1 1 0 0 0 0 0 0 0 0 0 0 0 0 0 0 0 0 1 1 0 0 0 0 0 0 0 0 0 0 0 0 0
0 0 0 0 0 0 0 0 0 0 0 0 0 1 1 1 0 0 0 0 0 0 0 0 0 0 0 0 0 0 0 0 0 0 0 0 0 0 0 0 0 0 0 0 0 0 0 0 0
0 0 0 0 0 0 0 0 0 0 0 0 0 0 0 0 0 0 0 0 0 0 0 0 0 0 0 0 0 0 0 0 0 0 0 0 0 0 0 0 0 0 0 0 0 0 0 0 0
0 0 0 0 0 0 0 0 0 0 0 0 0 0 0 0 0 0 0 0 0 0 0 0 0 0 0 0 0 0 0 0 0 0 0 0 0 0 0 0 0 0 0 0 0 0 0 0 0
0 0 0 0 0 0 0 0 0 0 0 0 0 0 0 0 0 0 0 0 0 0 0 0 0 0 0 0 0 0 0 0 0 0 0 0 0 0 0 0 0 0 0 0 0 0 0 0 0
0 0 0 0 0 0 0 0 0 0 0 0 0 0 0 0 0 0 0 0 0 0 0 1 1 0 0 0 0 0 0 0 0 0 0 0 0 0 0 0 0 0 0 0 0 0 0 0 0
0 0 0 0 0 0 0 0 0 0 0 0 0 0 0 0 0 0 0 0 0 1 1 2 2 1 0 0 0 0 0 0 0 0 0 0 0 0 0 0 0 0 0 0 0 0 0 0 0
0 0 0 0 0 0 0 0 0 0 0 0 0 0 0 0 0 0 0 0 1 2 3 4 4 2 1 0 0 0 0 0 0 0 0 0 0 0 0 0 0 0 0 0 0 0 0 0 0
0 0 0 0 0 0 0 0 0 0 0 0 0 0 0 0 0 0 0 0 1 3 5 5 4 3 1 0 0 0 0 0 0 0 0 0 0 0 0 0 0 0 0 0 0 0 0 0 0
0 0 0 0 0 0 0 0 0 0 0 0 0 0 0 0 0 0 0 0 1 4 5 4 4 4 2 1 1 1 0 0 0 0 0 0 0 0 0 0 0 0 0 0 0 0 0 0 0
0 0 0 0 0 0 0 0 0 0 0 0 0 0 0 0 0 0 0 0 1 3 3 3 3 4 3 2 2 1 0 0 0 0 0 0 0 0 0 0 0 0 0 0 0 0 0 0 0
0 0 0 0 0 0 0 0 0 0 0 0 0 0 0 0 0 0 0 0 1 2 2 3 4 4 4 3 2 1 0 0 0 0 0 0 0 0 0 0 0 0 0 0 0 0 0 0 0
0 0 0 0 0 0 0 0 0 0 0 0 0 0 0 0 0 0 0 1 2 2 2 3 4 5 4 3 2 1 0 0 0 0 0 0 0 0 0 0 0 0 0 0 0 0 0 0 0
0 0 0 0 0 0 0 0 0 0 0 0 0 0 0 0 0 0 0 1 1 1 1 2 4 5 4 2 1 0 0 0 0 0 0 0 0 0 0 0 0 0 0 0 0 0 0 0 0
0 0 0 0 0 0 0 0 0 0 0 0 0 0 0 0 0 0 0 0 0 0 0 1 3 5 3 1 0 0 0 0 0 0 0 0 0 0 0 0 0 0 0 0 0 0 0 0 0
0 0 0 0 0 0 0 0 0 0 0 0 0 0 0 0 0 0 0 0 0 0 0 1 3 4 3 1 0 0 0 0 0 0 0 0 0 0 0 0 0 0 0 0 0 0 0 0 0
0 0 0 0 0 0 0 0 0 0 0 0 0 0 0 0 0 0 0 0 0 0 0 1 3 3 1 0 0 0 0 0 0 0 0 0 0 0 0 0 0 0 0 0 0 0 0 0 0
0 0 0 0 0 0 0 0 0 0 0 0 0 0 0 0 0 0 0 0 0 0 0 1 2 2 1 0 0 0 0 0 0 0 0 0 0 0 0 0 0 0 0 0 0 0 0 0 0
0 0 0 0 0 0 0 0 0 0 0 0 0 0 0 0 0 0 0 0 0 0 0 1 2 2 1 0 0 0 0 0 0 0 0 0 0 0 0 0 0 0 0 0 0 0 0 0 0
Wind_Speed
2 2 3 3 3 3 6 6 5 5 5 5 6 5 6 7 6 6 5 3 3 4 4 6 5 5 5 6 6 6 6 7 8 8 8 8 8 8 8 8 7 7 7 7 6 6 7 7 7
1 2 4 3 1 4 6 5 6 7 6 4 4 4 5 6 6 6 5 4 4 5 4 6 6 6 6 6 6 7 7 8 8 8 8 8 8 8 8 8 7 7 6 6 6 7 6 6 7
2 3 3 1 2 5 6 5 6 6 4 2 3 4 5 5 5 4 4 4 5 5 5 7 6 6 7 6 7 7 7 7 7 8 8 8 8 8 8 7 7 7 7 7 7 6 6 6 7
3 3 2 2 8 7 5 5 4 5 4 3 3 5 5 5 4 5 6 5 6 6 6 8 6 7 7 7 7 7 7 7 7 8 8 8 8 7 7 7 7 7 7 7 7 7 7 7 7
3 2 3 5 7 6 4 3 3 3 3 3 3 5 6 5 6 7 6 5 6 6 6 8 7 6 7 7 7 7 8 8 8 8 8 8 8 8 7 7 7 7 7 7 7 7 8 8 8
2 2 3 5 6 5 4 3 3 3 4 4 3 5 6 6 6 6 6 5 5 6 5 7 8 6 6 6 7 7 8 8 8 8 8 8 8 9 8 8 8 7 7 7 7 8 8 8 9
2 1 3 5 6 5 4 2 2 2 3 3 2 4 6 7 5 5 5 5 5 5 5 5 6 7 8 7 7 7 8 8 8 8 8 8 8 9 8 8 8 7 7 7 7 8 8 9 9
2 1 4 4 4 4 4 3 2 1 4 4 1 2 5 7 6 5 5 5 5 5 5 5 5 5 6 7 8 7 8 8 8 8 8 7 7 8 7 7 8 7 7 7 8 9 10 10 10
3 3 3 3 3 4 4 4 4 2 4 3 2 4 6 10 8 7 5 5 5 4 4 5 5 5 5 6 7 7 7 7 6 8 7 4 4 6 6 9 8 8 8 9 9 10 10 9 10
2 1 3 2 1 3 4 3 4 4 3 3 5 6 8 10 8 7 6 5 5 4 4 4 4 4 5 4 5 4 4 4 3 4 4 3 4 5 5 8 8 8 8 9 9 9 7 3 5
1 2 3 2 2 2 4 3 2 3 2 2 4 8 10 9 8 7 5 5 4 4 3 3 4 4 4 3 3 2 3 3 4 5 5 3 4 4 3 3 5 6 5 6 6 5 4 5 5
2 2 1 2 2 3 3 3 2 1 1 2 5 8 10 10 8 7 6 5 4 4 4 3 4 4 4 4 3 2 3 3 3 4 5 3 3 3 4 3 4 3 3 4 4 4 6 6 6
3 2 1 1 2 2 3 3 2 2 2 4 7 9 10 9 8 6 5 5 4 4 4 4 3 3 4 4 2 2 3 3 4 3 3 4 3 3 3 3 3 4 4 4 4 5 6 6 6
2 2 1 1 2 2 3 3 3 2 4 6 8 8 9 8 8 7 6 5 5 5 4 5 4 3 3 4 3 3 3 3 3 3 2 4 3 3 3 3 3 4 4 4 4 5 5 5 6
3 3 3 2 2 2 3 3 3 3 5 7 8 8 8 8 8 7 6 6 5 5 5 5 4 4 3 3 3 3 3 3 3 3 3 4 3 3 3 3 3 4 4 4 4 5 5 5 5
5 5 4 2 2 2 5 3 3 4 6 6 6 7 8 8 8 7 6 6 5 5 5 5 4 4 4 3 3 2 3 3 2 2 2 3 3 3 3 3 3 4 3 3 4 4 4 5 5
6 5 4 3 2 3 4 3 2 4 5 5 6 6 7 8 8 7 7 7 6 5 5 6 5 5 4 4 3 2 2 2 2 2 2 2 3 3 4 2 2 3 3 2 3 4 3 4 5
5 4 3 3 2 3 5 4 2 4 5 5 5 6 7 7 7 7 7 7 6 6 5 6 5 5 5 4 3 3 2 2 2 2 2 2 1 3 3 3 3 3 3 2 3 4 4 4 3
3 4 4 2 1 4 5 5 4 4 5 6 6 7 7 7 6 6 7 7 8 7 7 7 7 6 5 4 3 2 2 2 2 2 2 2 2 2 3 2 2 2 3 3 4 4 5 3 2
7 6 5 3 2 5 5 6 4 4 6 6 6 6 7 7 6 7 7 8 9 8 8 8 8 7 6 4 3 2 2 2 2 2 2 2 2 2 2 3 3 3 3 3 3 3 2 2 1
8 7 6 4 3 5 5 5 5 4 5 5 6 6 6 7 7 8 9 9 9 9 9 7 8 8 7 6 3 3 3 2 3 3 2 2 2 2 2 3 3 3 3 3 3 3 2 1 1
7 5 6 6 7 4 5 5 3 3 4 4 5 5 6 6 7 7 8 9 10 10 8 8 8 8 7 7 5 5 3 3 2 2 3 3 3 3 2 3 2 3 2 3 3 2 1 1 1
4 3 6 7 7 7 6 6 2 3 3 3 3 4 4 5 6 7 8 9 9 9 8 8 9 8 8 6 5 5 3 2 2 2 3 3 3 3 3 3 3 3 2 2 2 2 1 1 0
5 5 5 6 7 8 5 7 3 2 2 3 2 2 3 4 5 6 7 7 8 9 8 8 9 8 8 7 6 5 5 4 4 4 3 3 3 3 4 3 3 3 3 3 2 2 2 1 1
8 7 5 7 7 5 3 6 4 0 1 2 2 1 1 3 5 6 7 8 9 9 10 10 10 9 9 8 7 6 5 5 5 4 4 3 3 3 4 3 3 3 3 3 2 2 1 1 1
8 9 6 4 4 3 4 6 1 1 1 1 1 1 1 2 4 5 7 8 9 10 10 11 11 10 9 8 7 6 6 4 3 4 3 3 2 3 3 4 3 3 3 3 2 2 2 1 1
8 8 6 6 5 5 5 4 3 3 2 1 1 1 1 2 4 5 6 7 8 9 10 11 11 10 9 8 7 6 6 6 5 5 4 3 3 3 4 4 4 3 3 3 3 2 2 1 1
6 6 6 7 6 6 5 6 3 3 2 1 0 0 1 2 3 4 5 6 7 8 9 10 10 10 9 8 7 5 5 6 5 5 5 4 4 4 4 5 5 5 4 3 2 2 1 2 2
8 8 7 6 6 6 5 3 1 3 2 2 1 0 1 2 3 4 4 5 6 7 8 9 9 9 8 7 7 6 6 6 6 5 5 4 4 5 4 4 4 5 5 4 4 2 2 2 3
8 8 9 7 6 7 6 2 4 1 1 1 1 0 1 2 3 3 5 5 6 7 8 9 9 9 8 7 7 7 6 6 6 5 5 5 5 5 5 5 4 4 4 4 4 3 3 2 2
Wind_Direction
214 229 252 245 224 107 76 70 66 68 63 56 49 45 52 39 22 55 82 88 90 95 95 108 89 90 97 102 101 99 99 100 102 102 100 95 94 92 88 83 83 85 87 86 84 82 83 84 84
259 256 246 247 232 107 87 80 74 61 78 87 67 55 66 67 56 80 96 93 94 89 86 82 88 92 94 92 95 99 99 98 98 99 98 93 92 89 87 85 82 81 84 83 79 77 80 85 88
215 259 273 246 75 74 93 89 87 91 89 64 77 55 50 65 79 86 91 111 104 89 86 86 85 90 93 94 95 95 95 96 95 96 97 93 89 87 86 84 80 79 82 82 77 74 77 83 88
241 227 228 108 92 75 87 104 111 118 103 66 91 90 79 62 67 95 111 114 104 93 86 87 81 86 89 91 95 96 98 97 95 95 96 95 91 86 84 82 80 79 81 81 78 75 75 78 83
246 252 148 112 95 92 92 102 119 94 84 82 92 95 95 85 93 104 109 103 97 89 86 89 80 88 93 94 91 91 93 95 94 93 94 92 89 85 85 83 81 80 80 83 83 81 78 79 85
232 232 153 120 108 105 110 119 127 88 89 98 101 104 97 110 112 108 104 97 91 91 91 99 100 90 87 90 95 96 96 94 93 91 92 90 87 83 81 82 82 79 81 85 85 85 81 84 88
274 185 121 124 125 122 113 124 114 93 92 81 74 101 116 125 120 118 109 102 96 95 94 94 108 113 109 96 94 98 98 94 93 92 92 89 87 84 81 84 82 83 85 88 90 90 87 87 88
301 185 144 139 139 117 120 132 99 83 87 92 98 92 120 135 135 129 121 118 109 104 102 95 96 99 111 114 103 97 97 96 95 93 90 95 105 102 100 100 85 83 85 87 89 94 90 89 87
256 207 150 142 147 122 142 146 118 107 117 117 87 69 103 131 144 142 138 129 119 112 106 103 100 99 100 101 113 118 114 109 125 117 116 141 113 104 110 80 83 83 82 82 86 90 91 97 93
242 169 112 108 135 127 147 147 143 160 143 136 130 120 129 145 155 153 149 139 136 129 112 107 109 108 103 100 112 116 115 116 106 97 106 99 89 82 87 101 92 86 86 92 86 93 113 118 101
155 105 113 123 139 158 158 153 167 187 132 143 160 153 153 158 161 158 152 142 131 128 122 121 119 112 105 104 100 100 97 104 101 95 103 97 99 105 99 105 118 110 117 103 107 124 88 83 76
132 103 117 119 142 185 170 158 160 206 65 123 156 155 160 168 168 163 156 148 150 142 124 124 130 124 109 104 98 103 103 99 93 95 91 95 87 82 86 88 88 97 92 86 87 85 86 84 88
151 127 112 142 179 187 166 172 168 171 149 146 152 161 171 173 169 168 162 157 159 151 145 135 136 124 116 105 115 115 102 92 96 87 91 97 97 93 97 93 90 83 89 98 91 89 84 81 77
140 159 160 157 181 184 181 178 191 174 164 161 166 171 178 176 178 175 177 175 172 170 157 150 158 145 140 134 136 110 108 117 107 98 89 94 99 104 107 105 95 92 86 81 85 91 93 84 75
188 191 173 174 203 186 204 198 198 170 176 176 179 178 180 183 186 193 187 185 182 172 164 158 163 157 146 124 115 113 111 111 107 107 111 110 102 106 108 95 99 104 101 105 96 95 95 94 89
200 210 198 155 203 194 234 224 157 165 191 196 197 187 189 192 200 201 197 194 187 178 170 157 167 170 150 139 136 124 121 112 102 106 105 109 113 96 89 92 103 104 105 109 105 103 105 97 89
205 213 209 178 181 212 236 256 177 183 206 212 209 201 199 196 202 204 204 202 194 184 181 169 167 164 154 146 142 130 119 110 112 115 108 115 114 118 108 97 108 114 114 115 116 106 100 96 92
201 213 213 215 162 223 239 258 233 203 220 228 220 214 208 211 204 200 202 200 192 187 186 177 166 169 156 161 161 148 126 125 121 117 128 113 124 123 120 136 136 121 126 124 121 110 103 96 98
221 225 232 233 227 252 257 268 264 232 226 230 227 221 214 216 205 196 195 193 189 186 188 184 180 175 170 172 177 162 148 143 130 121 113 135 149 137 137 147 135 145 139 136 132 124 125 121 117
220 231 241 225 222 263 271 270 259 237 233 237 236 227 221 217 203 193 195 194 191 185 191 190 184 179 176 179 170 156 147 148 126 139 141 157 156 154 146 154 161 157 141 139 130 137 134 123 169
223 238 244 249 249 234 268 251 228 218 227 234 241 240 231 223 217 201 194 193 190 187 192 190 182 177 175 171 163 157 148 159 160 160 149 155 160 163 163 161 166 157 159 146 156 163 158 157 164
224 233 242 241 247 239 252 268 218 217 222 230 237 238 236 227 221 208 197 191 193 189 187 186 178 176 170 170 175 176 169 165 158 164 157 159 164 157 166 160 159 160 149 148 163 161 167 189 178
232 224 233 239 247 251 236 260 223 196 226 240 232 234 236 225 215 208 200 194 190 182 180 182 176 172 169 173 172 183 170 164 158 168 163 164 154 153 154 154 157 160 148 144 141 142 179 184 314
200 201 204 224 238 240 238 254 251 200 257 270 248 241 227 210 203 201 191 186 181 177 177 177 175 175 172 175 178 183 173 173 169 169 161 162 156 152 149 154 159 161 155 152 152 148 148 114 67
210 220 217 210 214 228 208 242 250 105 253 279 294 290 232 200 188 184 179 179 177 178 179 178 177 179 178 181 182 183 186 184 180 169 161 168 164 153 154 159 168 160 156 155 155 160 148 137 134
213 226 240 244 236 216 204 238 211 154 250 277 299 319 181 173 177 180 181 180 178 177 179 182 181 182 180 184 182 184 183 188 179 172 166 170 160 153 152 156 167 160 163 163 162 181 151 147 131
210 217 248 266 262 247 216 224 213 199 218 234 354 50 132 164 175 181 180 180 179 178 180 184 181 182 181 184 184 187 185 183 179 183 181 174 171 156 157 164 167 163 169 170 159 172 145 133 100
236 209 215 231 242 241 231 231 229 191 216 208 270 131 152 169 175 178 177 178 179 178 178 182 182 183 183 184 183 185 187 180 179 183 184 183 173 167 171 174 172 158 162 162 153 151 125 138 109
197 207 220 223 240 252 245 211 152 245 244 240 226 178 173 172 179 176 172 170 170 171 174 177 179 178 179 184 182 184 184 179 172 173 175 181 172 173 176 176 170 166 163 157 150 155 150 160 140
229 220 223 231 221 240 257 235 107 246 253 234 259 197 131 151 158 162 161 161 163 171 176 179 178 177 180 182 183 189 179 181 177 173 177 185 177 174 178 172 172 165 160 154 149 151 157 151 141